FDX1869 KLAX-KOAK

Flight info

Callsign FDX1869
Flight time 0h 53m
Altitude 30000
Route LADYJ4 COREZ RGOOD EMZOH4
Aircraft B763/H-SDE3FGHIM3RWXY/LB1

Departure

Time 2026-05-07 21:08
Airport Los Angeles International Airport (KLAX)

Arrival

Time 2026-05-07 22:01
Airport San Francisco Bay Oakland International Airport (KOAK)
Time Latitude Longitude Altitude Speed Heading
2026-05-07 20:42 33.93403 -118.38844 110 ft 0 kts 173°
2026-05-07 20:59 33.93414 -118.38846 109 ft 2 kts 173°
2026-05-07 20:59 33.93430 -118.38848 109 ft 2 kts 173°
2026-05-07 20:59 33.93444 -118.38850 109 ft 2 kts 173°
2026-05-07 20:59 33.93459 -118.38852 109 ft 2 kts 173°
2026-05-07 21:00 33.93474 -118.38854 109 ft 2 kts 173°
2026-05-07 21:00 33.93489 -118.38856 109 ft 2 kts 173°
2026-05-07 21:00 33.93504 -118.38859 109 ft 2 kts 173°
2026-05-07 21:00 33.93514 -118.38860 109 ft 2 kts 169°
2026-05-07 21:01 33.93527 -118.38866 109 ft 2 kts 146°
2026-05-07 21:01 33.93538 -118.38878 109 ft 2 kts 128°
2026-05-07 21:01 33.93545 -118.38892 110 ft 2 kts 109°
2026-05-07 21:01 33.93549 -118.38910 110 ft 2 kts 91°
2026-05-07 21:02 33.93549 -118.38919 110 ft 1 kts 83°
2026-05-07 21:02 33.93548 -118.38921 110 ft 0 kts 83°
2026-05-07 21:04 33.93549 -118.38911 110 ft 3 kts 83°
2026-05-07 21:04 33.93555 -118.38853 109 ft 11 kts 83°
2026-05-07 21:04 33.93566 -118.38743 109 ft 14 kts 83°
2026-05-07 21:05 33.93578 -118.38623 108 ft 14 kts 83°
2026-05-07 21:05 33.93590 -118.38504 108 ft 14 kts 83°
2026-05-07 21:05 33.93602 -118.38388 107 ft 13 kts 83°
2026-05-07 21:05 33.93621 -118.38305 107 ft 8 kts 51°
2026-05-07 21:06 33.93666 -118.38286 107 ft 6 kts 354°
2026-05-07 21:06 33.93710 -118.38293 107 ft 5 kts 350°
2026-05-07 21:06 33.93729 -118.38309 107 ft 3 kts 297°
2026-05-07 21:06 33.93728 -118.38361 107 ft 9 kts 264°
2026-05-07 21:07 33.93704 -118.38599 108 ft 55 kts 263°
2026-05-07 21:07 33.93633 -118.39284 112 ft 108 kts 263°
2026-05-07 21:07 33.93517 -118.40388 127 ft 153 kts 262°
2026-05-07 21:07 33.93372 -118.41760 402 ft 174 kts 263°
2026-05-07 21:08 33.93216 -118.43172 1155 ft 167 kts 261°
2026-05-07 21:08 33.93048 -118.44527 1715 ft 168 kts 264°
2026-05-07 21:08 33.92940 -118.45984 2092 ft 181 kts 268°
2026-05-07 21:08 33.92904 -118.47478 2690 ft 179 kts 271°
2026-05-07 21:09 33.92888 -118.48972 3179 ft 185 kts 270°
2026-05-07 21:09 33.92831 -118.50635 3301 ft 216 kts 267°
2026-05-07 21:09 33.92707 -118.52499 3855 ft 226 kts 266°
2026-05-07 21:09 33.92533 -118.54456 4305 ft 245 kts 265°
2026-05-07 21:10 33.92331 -118.56555 4813 ft 262 kts 265°
2026-05-07 21:10 33.92141 -118.58746 5502 ft 271 kts 266°
2026-05-07 21:10 33.92123 -118.60986 6428 ft 268 kts 281°
2026-05-07 21:10 33.92736 -118.63128 7023 ft 279 kts 302°
2026-05-07 21:11 33.93982 -118.64901 7847 ft 279 kts 323°
2026-05-07 21:11 33.95660 -118.66140 8339 ft 290 kts 336°
2026-05-07 21:11 33.99382 -118.67638 9027 ft 276 kts 358°
2026-05-07 21:12 34.01353 -118.67635 9288 ft 286 kts
2026-05-07 21:12 34.03339 -118.67509 9559 ft 286 kts
2026-05-07 21:12 34.05294 -118.67351 10026 ft 275 kts
2026-05-07 21:12 34.07171 -118.67203 10873 ft 271 kts
2026-05-07 21:13 34.09098 -118.66887 11193 ft 289 kts 12°
2026-05-07 21:13 34.11130 -118.66409 11360 ft 302 kts 12°
2026-05-07 21:13 34.13206 -118.65911 11892 ft 312 kts 12°
2026-05-07 21:13 34.15389 -118.65390 12275 ft 330 kts 12°
2026-05-07 21:14 34.17689 -118.64843 12850 ft 341 kts 12°
2026-05-07 21:14 34.20034 -118.64288 13653 ft 345 kts 12°
2026-05-07 21:14 34.22420 -118.63722 14379 ft 350 kts 12°
2026-05-07 21:14 34.24851 -118.63462 15080 ft 356 kts 357°
2026-05-07 21:15 34.27307 -118.63936 15786 ft 361 kts 350°
2026-05-07 21:15 34.29799 -118.64490 16503 ft 364 kts 351°
2026-05-07 21:15 34.32303 -118.65057 17224 ft 368 kts 351°
2026-05-07 21:15 34.34838 -118.65628 17925 ft 371 kts 351°
2026-05-07 21:16 34.37382 -118.66207 18636 ft 374 kts 351°
2026-05-07 21:16 34.39928 -118.66786 19238 ft 379 kts 351°
2026-05-07 21:16 34.42490 -118.67535 19885 ft 383 kts 341°
2026-05-07 21:16 34.44900 -118.68995 20475 ft 390 kts 331°
2026-05-07 21:17 34.47272 -118.70668 21072 ft 394 kts 332°
2026-05-07 21:17 34.49639 -118.72332 21705 ft 397 kts 332°
2026-05-07 21:17 34.52048 -118.74026 22315 ft 400 kts 332°
2026-05-07 21:17 34.54443 -118.75719 22891 ft 403 kts 332°
2026-05-07 21:18 34.56884 -118.77445 23478 ft 407 kts 331°
2026-05-07 21:18 34.59318 -118.79166 24039 ft 410 kts 331°
2026-05-07 21:18 34.61817 -118.80934 24598 ft 413 kts 331°
2026-05-07 21:18 34.64304 -118.82697 25167 ft 416 kts 332°
2026-05-07 21:19 34.66782 -118.84454 25706 ft 419 kts 331°
2026-05-07 21:19 34.69324 -118.86256 26238 ft 422 kts 331°
2026-05-07 21:19 34.71878 -118.88070 26689 ft 426 kts 331°
2026-05-07 21:19 34.74423 -118.89879 27287 ft 426 kts 331°
2026-05-07 21:20 34.76990 -118.91703 27713 ft 431 kts 331°
2026-05-07 21:20 34.79595 -118.93556 28172 ft 434 kts 331°
2026-05-07 21:20 34.82223 -118.95431 28660 ft 437 kts 331°
2026-05-07 21:20 34.84851 -118.97308 29102 ft 440 kts 331°
2026-05-07 21:21 34.87498 -118.99200 29559 ft 442 kts 331°
2026-05-07 21:21 34.90136 -119.01086 30025 ft 444 kts 331°
2026-05-07 21:21 34.92786 -119.02983 30151 ft 446 kts 331°
2026-05-07 21:21 34.95494 -119.04922 30130 ft 448 kts 331°
2026-05-07 21:22 35.00861 -119.08768 30091 ft 448 kts 330°
2026-05-07 21:22 35.06219 -119.12612 30078 ft 446 kts 331°
2026-05-07 21:23 35.11568 -119.16456 30073 ft 449 kts 331°
2026-05-07 21:23 35.16969 -119.20342 30064 ft 448 kts 331°
2026-05-07 21:24 35.22351 -119.24221 30053 ft 448 kts 330°
2026-05-07 21:24 35.27727 -119.28102 30043 ft 448 kts 330°
2026-05-07 21:25 35.33080 -119.31973 30045 ft 447 kts 330°
2026-05-07 21:25 35.38457 -119.35866 30045 ft 448 kts 330°
2026-05-07 21:26 35.43798 -119.39740 30041 ft 448 kts 330°
2026-05-07 21:26 35.49157 -119.43632 30036 ft 448 kts 330°
2026-05-07 21:27 35.54530 -119.47555 30029 ft 448 kts 328°
2026-05-07 21:27 35.59458 -119.52281 30028 ft 451 kts 322°
2026-05-07 21:28 35.64290 -119.57177 30027 ft 451 kts 322°
2026-05-07 21:28 35.69103 -119.62083 30027 ft 450 kts 322°
2026-05-07 21:29 35.73912 -119.67002 30020 ft 449 kts 321°
2026-05-07 21:29 35.78733 -119.71944 30012 ft 451 kts 321°
2026-05-07 21:30 35.83546 -119.76886 30001 ft 451 kts 321°
2026-05-07 21:30 35.88347 -119.81825 30006 ft 450 kts 321°
2026-05-07 21:31 35.93026 -119.86931 30013 ft 450 kts 316°
2026-05-07 21:31 35.97547 -119.92306 30011 ft 450 kts 317°
2026-05-07 21:32 36.02092 -119.97702 30020 ft 450 kts 317°
2026-05-07 21:32 36.06614 -120.03074 30020 ft 450 kts 317°
2026-05-07 21:33 36.11114 -120.08428 30024 ft 449 kts 317°
2026-05-07 21:33 36.15653 -120.13835 30025 ft 451 kts 317°
2026-05-07 21:34 36.20155 -120.19209 30023 ft 453 kts 317°
2026-05-07 21:34 36.24670 -120.24609 30021 ft 451 kts 317°
2026-05-07 21:35 36.29209 -120.30043 30027 ft 453 kts 317°
2026-05-07 21:35 36.33707 -120.35438 30031 ft 453 kts 317°
2026-05-07 21:36 36.38244 -120.40891 30034 ft 452 kts 317°
2026-05-07 21:36 36.42727 -120.46286 30040 ft 452 kts 317°
2026-05-07 21:37 36.44992 -120.49016 29733 ft 452 kts 317°
2026-05-07 21:37 36.47236 -120.51723 29228 ft 447 kts 317°
2026-05-07 21:37 36.49424 -120.54366 28744 ft 442 kts 317°
2026-05-07 21:37 36.51614 -120.57013 28314 ft 435 kts 317°
2026-05-07 21:38 36.53760 -120.59596 28053 ft 425 kts 318°
2026-05-07 21:38 36.55970 -120.62048 27602 ft 422 kts 320°
2026-05-07 21:38 36.58133 -120.64432 27062 ft 420 kts 320°
2026-05-07 21:38 36.60320 -120.66849 26537 ft 417 kts 319°
2026-05-07 21:39 36.62480 -120.69241 26031 ft 413 kts 319°
2026-05-07 21:39 36.64626 -120.71619 25513 ft 410 kts 319°
2026-05-07 21:39 36.66755 -120.73980 25007 ft 407 kts 319°
2026-05-07 21:39 36.68852 -120.76308 24506 ft 404 kts 319°
2026-05-07 21:40 36.70935 -120.78624 24014 ft 401 kts 319°
2026-05-07 21:40 36.73014 -120.80936 23542 ft 397 kts 319°
2026-05-07 21:40 36.75071 -120.83225 23088 ft 395 kts 319°
2026-05-07 21:40 36.77068 -120.85448 22658 ft 393 kts 319°
2026-05-07 21:41 36.79101 -120.87702 22207 ft 389 kts 319°
2026-05-07 21:41 36.81113 -120.89931 21784 ft 386 kts 319°
2026-05-07 21:41 36.83101 -120.92133 21363 ft 384 kts 319°
2026-05-07 21:41 36.85095 -120.94344 20948 ft 381 kts 319°
2026-05-07 21:42 36.87069 -120.96536 20533 ft 378 kts 319°
2026-05-07 21:42 36.89024 -120.98708 20121 ft 375 kts 319°
2026-05-07 21:42 36.90972 -121.00873 19706 ft 373 kts 319°
2026-05-07 21:42 36.92879 -121.02994 19302 ft 371 kts 319°
2026-05-07 21:43 36.94802 -121.05135 19046 ft 365 kts 319°
2026-05-07 21:43 36.96692 -121.07240 19061 ft 359 kts 319°
2026-05-07 21:43 36.98546 -121.09306 19063 ft 365 kts 319°
2026-05-07 21:43 37.00478 -121.11460 19066 ft 371 kts 319°
2026-05-07 21:44 37.02405 -121.13612 19022 ft 373 kts 319°
2026-05-07 21:44 37.04360 -121.15794 18194 ft 378 kts 319°
2026-05-07 21:44 37.06286 -121.17948 17462 ft 371 kts 319°
2026-05-07 21:44 37.08189 -121.20076 16726 ft 364 kts 319°
2026-05-07 21:45 37.10057 -121.22167 15982 ft 359 kts 319°
2026-05-07 21:45 37.11903 -121.24236 15320 ft 359 kts 319°
2026-05-07 21:45 37.13762 -121.26333 14677 ft 362 kts 317°
2026-05-07 21:45 37.15610 -121.28484 14259 ft 356 kts 317°
2026-05-07 21:46 37.17420 -121.30585 13812 ft 353 kts 317°
2026-05-07 21:46 37.19199 -121.32652 13131 ft 347 kts 317°
2026-05-07 21:46 37.20938 -121.34675 12541 ft 338 kts 317°
2026-05-07 21:46 37.22638 -121.36653 11957 ft 334 kts 317°
2026-05-07 21:47 37.24337 -121.38630 11444 ft 331 kts 316°
2026-05-07 21:47 37.26005 -121.40573 10924 ft 328 kts 316°
2026-05-07 21:47 37.27664 -121.42507 10413 ft 325 kts 316°
2026-05-07 21:47 37.29293 -121.44408 10045 ft 315 kts 316°
2026-05-07 21:48 37.30877 -121.46255 10033 ft 299 kts 316°
2026-05-07 21:48 37.32362 -121.47990 9973 ft 287 kts 316°
2026-05-07 21:48 37.33815 -121.49688 9822 ft 281 kts 316°
2026-05-07 21:48 37.35240 -121.51355 9522 ft 282 kts 315°
2026-05-07 21:49 37.36662 -121.53018 9299 ft 278 kts 316°
2026-05-07 21:49 37.38099 -121.54690 8824 ft 284 kts 316°
2026-05-07 21:49 37.39570 -121.56368 8383 ft 288 kts 317°
2026-05-07 21:49 37.41041 -121.58046 8104 ft 283 kts 317°
2026-05-07 21:50 37.42487 -121.59696 8055 ft 271 kts 317°
2026-05-07 21:50 37.43845 -121.61304 7675 ft 266 kts 309°
2026-05-07 21:50 37.44908 -121.63080 7566 ft 248 kts 305°
2026-05-07 21:50 37.45895 -121.64785 7554 ft 235 kts 305°
2026-05-07 21:51 37.46838 -121.66419 7514 ft 224 kts 304°
2026-05-07 21:51 37.47724 -121.67961 7281 ft 218 kts 304°
2026-05-07 21:51 37.48612 -121.69511 6925 ft 216 kts 304°
2026-05-07 21:51 37.49473 -121.71017 6933 ft 208 kts 304°
2026-05-07 21:52 37.50331 -121.72520 7003 ft 218 kts 304°
2026-05-07 21:52 37.51230 -121.74097 6949 ft 225 kts 304°
2026-05-07 21:52 37.52138 -121.75689 6931 ft 218 kts 304°
2026-05-07 21:52 37.52959 -121.77271 6906 ft 213 kts 290°
2026-05-07 21:53 37.53283 -121.79089 6849 ft 219 kts 278°
2026-05-07 21:53 37.53528 -121.81019 6619 ft 224 kts 278°
2026-05-07 21:53 37.53772 -121.82939 6352 ft 222 kts 278°
2026-05-07 21:53 37.54005 -121.84842 6128 ft 217 kts 278°
2026-05-07 21:54 37.54229 -121.86707 5950 ft 213 kts 278°
2026-05-07 21:54 37.54446 -121.88536 5719 ft 212 kts 278°
2026-05-07 21:54 37.54663 -121.90373 5539 ft 211 kts 278°
2026-05-07 21:54 37.54877 -121.92194 5310 ft 212 kts 278°
2026-05-07 21:55 37.55092 -121.94034 5061 ft 210 kts 278°
2026-05-07 21:55 37.55305 -121.95851 4829 ft 210 kts 278°
2026-05-07 21:55 37.55516 -121.97665 4600 ft 209 kts 278°
2026-05-07 21:55 37.55744 -121.99459 4344 ft 208 kts 286°
2026-05-07 21:56 37.56477 -122.01004 4110 ft 206 kts 310°
2026-05-07 21:56 37.57399 -122.02382 3847 ft 205 kts 308°
2026-05-07 21:56 37.58304 -122.03767 3587 ft 204 kts 309°
2026-05-07 21:56 37.59217 -122.05145 3322 ft 204 kts 310°
2026-05-07 21:57 37.60129 -122.06512 3055 ft 204 kts 310°
2026-05-07 21:57 37.61041 -122.07874 2784 ft 204 kts 310°
2026-05-07 21:57 37.61965 -122.09251 2509 ft 205 kts 310°
2026-05-07 21:57 37.62886 -122.10624 2198 ft 203 kts 310°
2026-05-07 21:58 37.63788 -122.11964 1989 ft 197 kts 310°
2026-05-07 21:58 37.64647 -122.13238 1701 ft 186 kts 309°
2026-05-07 21:58 37.65454 -122.14423 1398 ft 172 kts 310°
2026-05-07 21:58 37.66198 -122.15527 1122 ft 156 kts 309°
2026-05-07 21:59 37.66845 -122.16500 967 ft 140 kts 309°
2026-05-07 21:59 37.67484 -122.17453 798 ft 142 kts 310°
2026-05-07 21:59 37.68131 -122.18402 647 ft 143 kts 309°
2026-05-07 21:59 37.68763 -122.19348 502 ft 143 kts 309°
2026-05-07 22:00 37.69406 -122.20325 321 ft 145 kts 309°
2026-05-07 22:00 37.70050 -122.21278 106 ft 142 kts 309°
2026-05-07 22:00 37.70668 -122.22196 19 ft 129 kts 308°
2026-05-07 22:00 37.71102 -122.22857 17 ft 58 kts 310°
2026-05-07 22:01 37.71324 -122.23097 17 ft 28 kts 336°
2026-05-07 22:01 37.71459 -122.23145 16 ft 14 kts
2026-05-07 22:01 37.71491 -122.23068 16 ft 11 kts 114°
2026-05-07 22:01 37.71443 -122.22991 16 ft 10 kts 130°
2026-05-07 22:02 37.71397 -122.22921 17 ft 10 kts 130°
2026-05-07 22:02 37.71346 -122.22845 17 ft 12 kts 130°
2026-05-07 22:02 37.71285 -122.22755 17 ft 14 kts 130°
2026-05-07 22:02 37.71220 -122.22658 17 ft 14 kts 129°
2026-05-07 22:03 37.71198 -122.22558 17 ft 11 kts 71°
2026-05-07 22:03 37.71247 -122.22480 17 ft 11 kts 48°
2026-05-07 22:03 37.71303 -122.22401 17 ft 12 kts 49°
2026-05-07 22:03 37.71345 -122.22304 17 ft 12 kts 89°
2026-05-07 22:04 37.71334 -122.22206 17 ft 10 kts 80°
2026-05-07 22:04 37.71375 -122.22128 17 ft 10 kts 47°
2026-05-07 22:04 37.71423 -122.22063 17 ft 10 kts 48°
2026-05-07 22:04 37.71473 -122.21993 17 ft 9 kts 40°
2026-05-07 22:05 37.71527 -122.21991 17 ft 7 kts 327°
2026-05-07 22:05 37.71563 -122.22035 17 ft 7 kts 317°
2026-05-07 22:05 37.71613 -122.22051 17 ft 8 kts 23°
2026-05-07 22:05 37.71658 -122.21999 17 ft 7 kts 48°
2026-05-07 22:06 37.71671 -122.21977 17 ft 1 kts 70°
2026-05-07 22:06 37.71667 -122.21956 17 ft 4 kts 119°
2026-05-07 22:06 37.71638 -122.21920 17 ft 4 kts 139°
2026-05-07 22:06 37.71636 -122.21918 17 ft 0 kts 139°